Location: Ostrava
(49.8330°N, 18.2830°E)
Time: 19:55:47
(UTC+02:00)

ISS - Pass Details

Date: 21 September 2024
Orbit: 411 x 424 km, 51.6° (Epoch: 12 October)

Event Time Altitude Azimuth Distance (km) Brightness Sun altitude
Rises 19:44:08 0° 274° (W) 2,368 2.2 -10.1°
Reaches altitude 10° 19:46:15 10° 278° (W) 1,508 0.7 -10.4°
Maximum altitude 19:49:36 61° 360° (N) 485 -3.4 -10.9°
Enters shadow 19:52:11 16° 79° (E) 1,205 -2.0 -11.3°
